CW6532 Weather Reports


time (UTC)temp
C
wind
direction
speed
KPH
gust
KPH
rain 1hr
cm
rain 24hr
cm
rain mn
cm
humidity
%
barometer
mb
20190222024319 7 196 6.4 8.0 0.00 0.00 0.00 76 1005.6
20190222023311 7 197 6.4 12.9 0.00 0.00 0.00 74 1005.5
20190222022323 7 189 6.4 16.1 0.00 0.00 0.00 74 1005.5
20190222021314 7 198 12.9 25.7 0.00 0.00 0.00 74 1005.8
20190222020311 7 198 19.3 33.8 0.00 0.00 0.00 73 1005.7
20190222015322 7 210 14.5 25.7 0.00 0.00 0.00 73 1005.5
20190222014312 7 221 17.7 29.0 0.00 0.00 0.00 72 1005.3
20190222013324 7 220 17.7 32.2 0.00 0.00 0.00 72 1005.2
20190222012317 8 232 17.7 35.4 0.00 0.00 0.00 69 1005.3
20190222011326 8 252 20.9 30.6 0.00 0.00 0.00 67 1005.1
20190222010318 8 223 17.7 30.6 0.00 0.00 0.00 62 1005.1
20190222005330 9 223 14.5 27.4 0.00 0.00 0.00 59 1005.0
20190222004318 9 221 20.9 32.2 0.00 0.00 0.00 59 1005.0
20190222003329 9 236 19.3 32.2 0.00 0.00 0.00 59 1004.9
20190222002317 9 247 17.7 35.4 0.00 0.00 0.00 61 1004.9
20190222001329 8 232 16.1 41.8 0.00 0.00 0.00 64 1004.8
20190222000320 8 232 22.5 35.4 0.00 0.00 0.00 67 1004.9
20190221235328 8 240 25.7 46.7 0.00 0.00 0.00 68 1004.9
20190221234315 8 192 25.7 45.1 0.00 0.00 0.00 63 1005.0
20190221233310 9 225 27.4 49.9 0.00 0.00 0.00 60 1004.7
20190221232318 9 236 29.0 54.7 0.00 0.00 0.00 62 1004.7
20190221231326 9 247 35.4 45.1 0.00 0.00 0.00 56 1004.6
20190221230321 10 204 29.0 48.3 0.00 0.00 0.00 51 1004.4
20190221225329 10 223 25.7 40.2 0.00 0.00 0.00 52 1004.4
20190221224317 10 219 20.9 43.5 0.00 0.00 0.00 53 1004.6
20190221223327 10 221 29.0 46.7 0.00 0.00 0.00 51 1004.2
20190221222318 10 208 30.6 43.5 0.00 0.00 0.00 49 1004.2
20190221221328 10 188 32.2 53.1 0.00 0.00 0.00 48 1004.1
20190221220319 10 198 30.6 45.1 0.00 0.00 0.00 48 1004.3
20190221215328 10 208 25.7 49.9 0.00 0.00 0.00 47 1004.4
20190221214321 10 213 19.3 56.3 0.00 0.00 0.00 50 1004.5
20190221213312 10 266 30.6 43.5 0.00 0.00 0.00 52 1004.4
20190221212319 10 218 29.0 43.5 0.00 0.00 0.00 47 1004.3
20190221211311 10 194 20.9 35.4 0.00 0.00 0.00 41 1004.1
20190221210323 10 188 17.7 33.8 0.00 0.00 0.00 45 1004.2
20190221205331 10 213 30.6 43.5 0.00 0.00 0.00 45 1004.3
20190221204315 10 229 22.5 40.2 0.00 0.00 0.00 44 1004.3
20190221203310 10 248 22.5 40.2 0.00 0.00 0.00 43 1004.5
20190221202318 10 198 24.1 40.2 0.00 0.00 0.00 42 1004.6
20190221201327 11 194 27.4 40.2 0.00 0.00 0.00 40 1004.6
20190221200317 11 217 27.4 38.6 0.00 0.00 0.00 39 1004.8
20190221195328 11 209 27.4 40.2 0.00 0.00 0.00 39 1004.9
20190221194316 11 211 30.6 43.5 0.00 0.00 0.00 39 1005.0
20190221193328 10 190 25.7 46.7 0.00 0.00 0.00 40 1005.2
20190221192315 10 205 30.6 43.5 0.00 0.00 0.00 40 1005.5
20190221191327 10 248 22.5 35.4 0.00 0.00 0.00 42 1005.7
20190221190318 10 213 24.1 38.6 0.00 0.00 0.00 42 1006.0
20190221185327 9 217 19.3 35.4 0.00 0.00 0.00 43 1006.2
20190221184320 9 248 22.5 38.6 0.00 0.00 0.00 45 1006.4
20190221183311 8 196 25.7 37.0 0.00 0.00 0.00 47 1006.4
20190221182320 8 203 20.9 30.6 0.00 0.00 0.00 49 1006.5
20190221181327 8 201 22.5 38.6 0.00 0.00 0.00 50 1006.6
20190221180323 8 215 29.0 35.4 0.00 0.00 0.00 50 1006.9
20190221175311 8 219 19.3 38.6 0.00 0.00 0.00 48 1006.9
20190221174319 8 240 20.9 30.6 0.00 0.00 0.00 48 1006.7
20190221173310 8 196 20.9 33.8 0.00 0.00 0.00 48 1006.6
20190221172322 8 199 19.3 40.2 0.00 0.00 0.00 49 1006.8
20190221171310 7 214 11.3 22.5 0.00 0.00 0.00 50 1006.8
20190221170321 7 215 11.3 17.7 0.00 0.00 0.00 51 1007.1
20190221165313 7 165 12.9 22.5 0.00 0.00 0.00 50 1007.1
20190221164322 7 149 12.9 22.5 0.00 0.00 0.00 49 1007.0
20190221163313 7 171 14.5 22.5 0.00 0.00 0.00 48 1007.2
20190221162321 7 189 14.5 24.1 0.00 0.00 0.00 47 1007.3
20190221161327 6 175 14.5 32.2 0.00 0.00 0.00 46 1006.9
20190221160315 6 131 20.9 38.6 0.00 0.00 0.00 43 1006.9
20190221155323 6 134 14.5 30.6 0.00 0.00 0.00 41 1006.9
20190221154312 6 117 14.5 24.1 0.00 0.00 0.00 38 1006.8
20190221153329 6 161 14.5 22.5 0.00 0.00 0.00 36 1006.6
20190221152316 6 153 11.3 17.7 0.00 0.00 0.00 36 1006.5
20190221151325 5 209 4.8 11.3 0.00 0.00 0.00 44 1006.6
20190221150315 5 211 4.8 8.0 0.00 0.00 0.00 46 1006.7
20190221145327 5 211 3.2 8.0 0.00 0.00 0.00 47 1006.7
20190221144315 5 211 4.8 6.4 0.00 0.00 0.00 45 1006.6
20190221143325 5 211 4.8 8.0 0.00 0.00 0.00 45 1006.6
20190221142318 5 211 6.4 8.0 0.00 0.00 0.00 45 1006.6
20190221141326 5 215 6.4 11.3 0.00 0.00 0.00 45 1006.8
20190221140318 5 232 6.4 9.7 0.00 0.00 0.00 45 1006.8
20190221135326 5 233 4.8 6.4 0.00 0.00 0.00 44 1006.8
20190221134319 5 233 3.2 4.8 0.00 0.00 0.00 44 1007.0
20190221133311 5 233 3.2 4.8 0.00 0.00 0.00 43 1006.9
20190221132318 5 233 3.2 4.8 0.00 0.00 0.00 43 1006.9
20190221131329 5 233 4.8 4.8 0.00 0.00 0.00 41 1006.9
20190221130323 5 234 3.2 6.4 0.00 0.00 0.00 41 1006.8
20190221125312 5 234 0.0 1.6 0.00 0.00 0.00 36 1006.8
20190221124321 5 234 0.0 3.2 0.00 0.00 0.00 34 1006.7
20190221123316 5 234 0.0 1.6 0.00 0.00 0.00 33 1006.8
20190221122323 5 234 1.6 3.2 0.00 0.00 0.00 34 1006.6
20190221121312 5 234 3.2 3.2 0.00 0.00 0.00 32 1006.6
20190221120324 5 234 0.0 1.6 0.00 0.00 0.00 32 1006.5
20190221115318 5 234 0.0 1.6 0.00 0.00 0.00 31 1006.6
20190221114327 5 234 0.0 3.2 0.00 0.00 0.00 32 1006.5
20190221113318 5 234 3.2 8.0 0.00 0.00 0.00 32 1006.6
20190221112324 5 233 4.8 6.4 0.00 0.00 0.00 31 1006.6
20190221111314 5 232 3.2 4.8 0.00 0.00 0.00 31 1006.6
20190221110325 5 232 4.8 8.0 0.00 0.00 0.00 31 1006.7
20190221105315 5 215 3.2 6.4 0.00 0.00 0.00 30 1006.7
20190221104321 5 213 3.2 8.0 0.00 0.00 0.00 28 1006.8
20190221103317 5 69 0.0 4.8 0.00 0.00 0.00 32 1006.9
20190221102326 5 69 0.0 8.0 0.00 0.00 0.00 34 1006.9
20190221101314 5 200 1.6 4.8 0.00 0.00 0.00 38 1006.9
20190221100329 5 200 1.6 4.8 0.00 0.00 0.00 37 1006.8
20190221095317 5 201 1.6 3.2 0.00 0.00 0.00 33 1006.9
20190221094327 5 201 3.2 6.4 0.00 0.00 0.00 32 1006.9
20190221093318 5 201 1.6 4.8 0.00 0.00 0.00 31 1006.9
20190221092311 6 201 1.6 4.8 0.00 0.00 0.00 30 1007.2
20190221091322 6 201 1.6 8.0 0.00 0.00 0.00 28 1007.3
20190221090311 6 196 1.6 3.2 0.00 0.00 0.00 32 1007.4
20190221085320 6 196 0.0 3.2 0.00 0.00 0.00 28 1007.4
20190221084313 6 196 3.2 4.8 0.00 0.00 0.00 27 1007.2
20190221083324 6 196 3.2 6.4 0.00 0.00 0.00 31 1007.3
20190221082312 5 196 3.2 4.8 0.00 0.00 0.00 30 1007.3
20190221081324 6 197 4.8 6.4 0.00 0.00 0.00 31 1007.3
20190221080316 6 198 1.6 4.8 0.00 0.00 0.00 30 1007.4
20190221075323 6 198 4.8 8.0 0.00 0.00 0.00 30 1007.3
20190221074313 6 200 6.4 8.0 0.00 0.00 0.00 29 1007.5
20190221073329 6 207 9.7 14.5 0.00 0.00 0.00 28 1007.6
20190221072317 6 187 4.8 12.9 0.00 0.00 0.00 31 1007.4
20190221071324 6 191 3.2 8.0 0.00 0.00 0.00 27 1007.6
20190221070315 6 177 1.6 4.8 0.00 0.00 0.00 26 1007.6
20190221065328 6 177 3.2 8.0 0.00 0.00 0.00 26 1007.6
20190221064316 6 177 3.2 6.4 0.00 0.00 0.00 25 1007.8
20190221063326 6 177 4.8 8.0 0.00 0.00 0.00 25 1008.0
20190221062319 7 174 6.4 9.7 0.00 0.00 0.00 23 1008.0
20190221042321 7 161 8.0 11.3 0.00 0.00 0.00 25 1007.8
20190221041311 7 173 6.4 9.7 0.00 0.00 0.00 27 1008.0
20190221040322 7 184 6.4 8.0 0.00 0.00 0.00 26 1007.9